| time (UTC) | temp F | wind direction | speed knots | gust knots | rain 1hr in | rain 24hr in | rain mn in | humidity % | barometer mb |
| 20260510203056 | 72 | 21 | 0.9 | 2.6 | 0.00 | 0.00 | 0.00 | 42 | 1021.5 |
| 20260510202554 | 71 | 288 | 0.9 | 0.9 | 0.00 | 0.00 | 0.00 | 42 | 1021.6 |
| 20260510202051 | 71 | 271 | 0.9 | 1.7 | 0.00 | 0.00 | 0.00 | 43 | 1021.7 |
| 20260510201548 | 71 | 276 | 1.7 | 1.7 | 0.00 | 0.00 | 0.00 | 42 | 1021.7 |
| 20260510201045 | 72 | 289 | 1.7 | 1.7 | 0.00 | 0.00 | 0.00 | 39 | 1021.7 |
| 20260510200541 | 72 | 34 | 1.7 | 1.7 | 0.00 | 0.00 | 0.00 | 41 | 1021.5 |
| 20260510200039 | 72 | 300 | 0.9 | 0.9 | 0.00 | 0.00 | 0.00 | 39 | 1021.8 |
| 20260510195536 | 71 | 263 | 1.7 | 1.7 | 0.00 | 0.00 | 0.00 | 39 | 1021.7 |
| 20260510195032 | 71 | 277 | 1.7 | 2.6 | 0.00 | 0.00 | 0.00 | 37 | 1021.8 |
| 20260510194527 | 72 | 170 | 0.9 | 0.9 | 0.00 | 0.00 | 0.00 | 38 | 1021.7 |
| 20260510194024 | 71 | 282 | 0.0 | 0.9 | 0.00 | 0.00 | 0.00 | 39 | 1021.6 |
| 20260510193519 | 72 | 315 | 0.9 | 1.7 | 0.00 | 0.00 | 0.00 | 41 | 1021.6 |
| 20260510193015 | 72 | 133 | 2.6 | 4.3 | 0.00 | 0.00 | 0.00 | 38 | 1021.9 |
| 20260510192509 | 71 | 88 | 0.0 | 0.9 | 0.00 | 0.00 | 0.00 | 41 | 1021.8 |
| 20260510192006 | 71 | 262 | 2.6 | 4.3 | 0.00 | 0.00 | 0.00 | 39 | 1022.0 |
| 20260510191502 | 71 | 318 | 0.9 | 0.9 | 0.00 | 0.00 | 0.00 | 38 | 1021.9 |
| 20260510190959 | 71 | 300 | 0.0 | 0.9 | 0.00 | 0.00 | 0.00 | 39 | 1022.0 |
| 20260510190456 | 71 | 248 | 1.7 | 2.6 | 0.00 | 0.00 | 0.00 | 37 | 1021.9 |
| 20260510185953 | 71 | 286 | 0.9 | 1.7 | 0.00 | 0.00 | 0.00 | 40 | 1022.0 |
| 20260510185450 | 71 | 88 | 3.5 | 4.3 | 0.00 | 0.00 | 0.00 | 39 | 1021.9 |
| 20260510184947 | 72 | 311 | 1.7 | 1.7 | 0.00 | 0.00 | 0.00 | 38 | 1021.8 |
| 20260510184445 | 72 | 68 | 1.7 | 2.6 | 0.00 | 0.00 | 0.00 | 40 | 1021.8 |
| 20260510183944 | 71 | 282 | 1.7 | 2.6 | 0.00 | 0.00 | 0.00 | 39 | 1021.8 |
| 20260510183442 | 72 | 233 | 0.9 | 1.7 | 0.00 | 0.00 | 0.00 | 40 | 1021.7 |
| 20260510182941 | 73 | 257 | 1.7 | 1.7 | 0.00 | 0.00 | 0.00 | 37 | 1022.0 |
| 20260510182437 | 71 | 312 | 0.0 | 0.9 | 0.00 | 0.00 | 0.00 | 41 | 1021.7 |
| 20260510181933 | 71 | 259 | 1.7 | 1.7 | 0.00 | 0.00 | 0.00 | 40 | 1021.9 |
| 20260510181432 | 70 | 292 | 1.7 | 1.7 | 0.00 | 0.00 | 0.00 | 41 | 1021.6 |
| 20260510180927 | 71 | 286 | 1.7 | 1.7 | 0.00 | 0.00 | 0.00 | 41 | 1021.4 |
| 20260510180424 | 71 | 287 | 0.9 | 0.9 | 0.00 | 0.00 | 0.00 | 39 | 1021.5 |
| 20260510175921 | 70 | 339 | 0.9 | 1.7 | 0.00 | 0.00 | 0.00 | 41 | 1021.3 |
| 20260510175417 | 71 | 96 | 0.9 | 1.7 | 0.00 | 0.00 | 0.00 | 40 | 1021.6 |
| 20260510174913 | 70 | 231 | 0.9 | 0.9 | 0.00 | 0.00 | 0.00 | 41 | 1021.4 |
| 20260510174411 | 70 | 218 | 0.9 | 0.9 | 0.00 | 0.00 | 0.00 | 40 | 1021.4 |
| 20260510173908 | 71 | 286 | 0.9 | 0.9 | 0.00 | 0.00 | 0.00 | 40 | 1021.3 |
| 20260510173403 | 70 | 58 | 0.0 | 0.0 | 0.00 | 0.00 | 0.00 | 42 | 1021.5 |
| 20260510172900 | 70 | 278 | 0.0 | 0.9 | 0.00 | 0.00 | 0.00 | 40 | 1021.4 |
| 20260510172355 | 70 | 266 | 2.6 | 2.6 | 0.00 | 0.00 | 0.00 | 42 | 1021.4 |
| 20260510171852 | 70 | 283 | 0.9 | 0.9 | 0.00 | 0.00 | 0.00 | 44 | 1021.4 |
| 20260510171349 | 69 | 194 | 0.9 | 1.7 | 0.00 | 0.00 | 0.00 | 41 | 1021.3 |
| 20260510170846 | 70 | 193 | 0.0 | 0.9 | 0.00 | 0.00 | 0.00 | 45 | 1021.2 |
| 20260510170343 | 69 | 48 | 0.0 | 0.0 | 0.00 | 0.00 | 0.00 | 47 | 1021.1 |
| 20260510165838 | 69 | 307 | 0.0 | 0.0 | 0.00 | 0.00 | 0.00 | 45 | 1021.4 |
| 20260510165335 | 68 | 324 | 0.0 | 0.0 | 0.00 | 0.00 | 0.00 | 48 | 1021.2 |
| 20260510164832 | 68 | 90 | 2.6 | 4.3 | 0.00 | 0.00 | 0.00 | 42 | 1021.2 |
| 20260510164329 | 69 | 289 | 1.7 | 1.7 | 0.00 | 0.00 | 0.00 | 44 | 1021.4 |
| 20260510163829 | 69 | 230 | 0.9 | 0.9 | 0.00 | 0.00 | 0.00 | 44 | 1021.4 |
| 20260510163326 | 68 | 329 | 3.5 | 4.3 | 0.00 | 0.00 | 0.00 | 45 | 1021.3 |
| 20260510162825 | 68 | 285 | 3.5 | 4.3 | 0.00 | 0.00 | 0.00 | 46 | 1021.3 |
| 20260510162318 | 67 | 236 | 0.0 | 0.9 | 0.00 | 0.00 | 0.00 | 44 | 1021.1 |
| 20260510161813 | 67 | 225 | 0.0 | 0.9 | 0.00 | 0.00 | 0.00 | 45 | 1021.0 |
| 20260510161309 | 66 | 2 | 0.0 | 0.0 | 0.00 | 0.00 | 0.00 | 48 | 1021.3 |
| 20260510160806 | 66 | 87 | 2.6 | 2.6 | 0.00 | 0.00 | 0.00 | 47 | 1021.0 |
| 20260510160302 | 65 | 137 | 0.0 | 0.9 | 0.00 | 0.00 | 0.00 | 46 | 1020.9 |
| 20260510155757 | 65 | 192 | 0.9 | 1.7 | 0.00 | 0.00 | 0.00 | 47 | 1021.0 |
| 20260510155253 | 65 | 326 | 2.6 | 2.6 | 0.00 | 0.00 | 0.00 | 45 | 1020.9 |
| 20260510154749 | 64 | 2 | 0.9 | 0.9 | 0.00 | 0.00 | 0.00 | 46 | 1020.9 |
| 20260510154245 | 64 | 282 | 0.9 | 1.7 | 0.00 | 0.00 | 0.00 | 51 | 1020.8 |
| 20260510153740 | 64 | 319 | 0.9 | 1.7 | 0.00 | 0.00 | 0.00 | 53 | 1020.9 |
| 20260510153236 | 64 | 297 | 1.7 | 4.3 | 0.00 | 0.00 | 0.00 | 53 | 1020.7 |
| 20260510152733 | 64 | 270 | 1.7 | 1.7 | 0.00 | 0.00 | 0.00 | 53 | 1020.9 |
| 20260510152229 | 64 | 310 | 2.6 | 2.6 | 0.00 | 0.00 | 0.00 | 54 | 1020.9 |
| 20260510151726 | 64 | 243 | 0.9 | 0.9 | 0.00 | 0.00 | 0.00 | 52 | 1020.8 |
| 20260510151225 | 64 | 268 | 2.6 | 4.3 | 0.00 | 0.00 | 0.00 | 52 | 1021.0 |
| 20260510150720 | 65 | 60 | 1.7 | 2.6 | 0.00 | 0.00 | 0.00 | 53 | 1021.1 |
| 20260510150215 | 64 | 280 | 0.0 | 0.9 | 0.00 | 0.00 | 0.00 | 54 | 1021.0 |
| 20260510145712 | 64 | 278 | 1.7 | 4.3 | 0.00 | 0.00 | 0.00 | 54 | 1021.2 |
| 20260510145208 | 64 | 48 | 0.0 | 0.0 | 0.00 | 0.00 | 0.00 | 58 | 1021.1 |
| 20260510144705 | 64 | 301 | 0.0 | 0.9 | 0.00 | 0.00 | 0.00 | 58 | 1021.0 |
| 20260510144201 | 65 | 341 | 1.7 | 2.6 | 0.00 | 0.00 | 0.00 | 59 | 1021.1 |
| 20260510143656 | 65 | 293 | 0.0 | 0.0 | 0.00 | 0.00 | 0.00 | 61 | 1020.9 |
| 20260510143153 | 66 | 293 | 0.9 | 0.9 | 0.00 | 0.00 | 0.00 | 60 | 1020.8 |
| 20260510142649 | 65 | 32 | 0.0 | 0.0 | 0.00 | 0.00 | 0.00 | 60 | 1020.7 |
| 20260510142146 | 65 | 97 | 2.6 | 5.2 | 0.00 | 0.00 | 0.00 | 58 | 1020.6 |
| 20260510141643 | 64 | 41 | 0.0 | 0.9 | 0.00 | 0.00 | 0.00 | 60 | 1020.3 |
| 20260510141142 | 64 | 310 | 0.9 | 0.9 | 0.00 | 0.00 | 0.00 | 60 | 1020.3 |
| 20260510140637 | 64 | 328 | 0.0 | 0.0 | 0.00 | 0.00 | 0.00 | 61 | 1020.2 |
| 20260510140137 | 63 | 5 | 0.9 | 1.7 | 0.00 | 0.00 | 0.00 | 61 | 1020.1 |
| 20260510135632 | 63 | 325 | 0.0 | 0.0 | 0.00 | 0.00 | 0.00 | 63 | 1020.0 |
| 20260510135129 | 63 | 8 | 0.9 | 1.7 | 0.00 | 0.00 | 0.00 | 63 | 1020.0 |
| 20260510134626 | 63 | 302 | 0.0 | 0.0 | 0.00 | 0.00 | 0.00 | 66 | 1020.1 |
| 20260510134123 | 63 | 285 | 0.0 | 0.0 | 0.00 | 0.00 | 0.00 | 67 | 1020.2 |
| 20260510133619 | 62 | 291 | 0.0 | 0.0 | 0.00 | 0.00 | 0.00 | 67 | 1020.2 |
| 20260510133114 | 62 | 281 | 0.0 | 0.9 | 0.00 | 0.00 | 0.00 | 70 | 1020.1 |
| 20260510132612 | 62 | 289 | 0.0 | 0.0 | 0.00 | 0.00 | 0.00 | 72 | 1019.9 |
| 20260510132109 | 61 | 20 | 3.5 | 4.3 | 0.00 | 0.00 | 0.00 | 71 | 1019.8 |
| 20260510131606 | 62 | 21 | 0.9 | 1.7 | 0.00 | 0.00 | 0.00 | 74 | 1019.7 |
| 20260510131103 | 61 | 303 | 0.9 | 1.7 | 0.00 | 0.00 | 0.00 | 76 | 1019.5 |
| 20260510130559 | 61 | 93 | 0.0 | 0.9 | 0.00 | 0.00 | 0.00 | 76 | 1019.4 |
| 20260510130057 | 60 | 356 | 0.9 | 0.9 | 0.00 | 0.00 | 0.00 | 77 | 1019.4 |
| 20260510125553 | 59 | 302 | 0.9 | 0.9 | 0.00 | 0.00 | 0.00 | 81 | 1019.1 |
| 20260510125049 | 59 | 249 | 0.9 | 0.9 | 0.00 | 0.00 | 0.00 | 81 | 1019.1 |
| 20260510124546 | 59 | 352 | 0.9 | 0.9 | 0.00 | 0.00 | 0.00 | 83 | 1019.1 |
| 20260510124044 | 59 | 37 | 1.7 | 2.6 | 0.00 | 0.00 | 0.00 | 82 | 1018.9 |
| 20260510123539 | 59 | 281 | 0.0 | 0.0 | 0.00 | 0.00 | 0.00 | 83 | 1019.0 |
| 20260510123035 | 59 | 277 | 0.9 | 1.7 | 0.00 | 0.00 | 0.00 | 83 | 1019.1 |
| 20260510122531 | 59 | 289 | 0.0 | 0.0 | 0.00 | 0.00 | 0.00 | 84 | 1019.3 |
| 20260510122027 | 59 | 343 | 0.0 | 0.0 | 0.00 | 0.00 | 0.00 | 83 | 1019.0 |
| 20260510121525 | 58 | 328 | 1.7 | 1.7 | 0.00 | 0.00 | 0.00 | 82 | 1018.9 |
| 20260510121022 | 58 | 340 | 0.9 | 0.9 | 0.00 | 0.00 | 0.00 | 82 | 1018.9 |
| 20260510120519 | 58 | 292 | 0.0 | 0.0 | 0.00 | 0.00 | 0.00 | 82 | 1018.9 |
| 20260510120015 | 58 | 311 | 0.9 | 0.9 | 0.00 | 0.00 | 0.00 | 81 | 1018.6 |
| 20260510115512 | 58 | 280 | 0.0 | 0.9 | 0.00 | 0.00 | 0.00 | 81 | 1018.6 |
| 20260510115008 | 58 | 287 | 0.0 | 0.9 | 0.00 | 0.00 | 0.00 | 81 | 1018.3 |
| 20260510114504 | 58 | 313 | 0.0 | 0.0 | 0.00 | 0.00 | 0.00 | 83 | 1018.4 |
| 20260510114000 | 58 | 16 | 0.0 | 0.9 | 0.00 | 0.00 | 0.00 | 82 | 1018.3 |
| 20260510113455 | 58 | 323 | 0.0 | 0.9 | 0.00 | 0.00 | 0.00 | 82 | 1018.0 |
| 20260510112953 | 59 | 253 | 0.0 | 0.0 | 0.00 | 0.00 | 0.00 | 83 | 1018.0 |
| 20260510112450 | 59 | 325 | 0.0 | 0.9 | 0.00 | 0.00 | 0.00 | 82 | 1017.7 |
| 20260510111947 | 58 | 244 | 0.9 | 0.9 | 0.00 | 0.00 | 0.00 | 83 | 1017.8 |
| 20260510111443 | 58 | 290 | 2.6 | 4.3 | 0.00 | 0.00 | 0.00 | 83 | 1017.5 |
| 20260510110939 | 58 | 245 | 1.7 | 1.7 | 0.00 | 0.00 | 0.00 | 83 | 1017.5 |
| 20260510110435 | 58 | 273 | 0.0 | 0.0 | 0.00 | 0.00 | 0.00 | 81 | 1017.6 |
| 20260510105931 | 58 | 292 | 0.0 | 0.0 | 0.00 | 0.00 | 0.00 | 81 | 1017.8 |
| 20260510105426 | 58 | 294 | 0.0 | 0.0 | 0.00 | 0.00 | 0.00 | 82 | 1017.4 |
| 20260510104922 | 58 | 283 | 0.0 | 0.0 | 0.00 | 0.00 | 0.00 | 82 | 1017.5 |
| 20260510104419 | 59 | 298 | 0.0 | 0.0 | 0.00 | 0.00 | 0.00 | 83 | 1017.2 |
| 20260510103915 | 58 | 21 | 1.7 | 2.6 | 0.00 | 0.00 | 0.00 | 82 | 1017.2 |
| 20260510103408 | 59 | 159 | 0.0 | 0.0 | 0.00 | 0.00 | 0.00 | 84 | 1017.3 |
| 20260510102903 | 58 | 337 | 0.0 | 0.9 | 0.00 | 0.00 | 0.00 | 82 | 1017.3 |
| 20260510102359 | 58 | 325 | 0.9 | 0.9 | 0.00 | 0.00 | 0.00 | 86 | 1017.0 |
| 20260510101856 | 59 | 321 | 0.0 | 0.0 | 0.00 | 0.00 | 0.00 | 86 | 1017.3 |
| 20260510101354 | 58 | 52 | 0.9 | 0.9 | 0.00 | 0.00 | 0.00 | 86 | 1016.9 |
| 20260510100850 | 58 | 268 | 0.0 | 0.0 | 0.00 | 0.00 | 0.00 | 88 | 1017.0 |
| 20260510100342 | 58 | 265 | 0.0 | 0.0 | 0.00 | 0.00 | 0.00 | 87 | 1016.9 |
| 20260510095838 | 58 | 283 | 0.0 | 0.0 | 0.00 | 0.00 | 0.00 | 87 | 1017.0 |
| 20260510095333 | 58 | 314 | 0.0 | 0.0 | 0.00 | 0.00 | 0.00 | 87 | 1017.1 |
| 20260510094833 | 58 | 292 | 0.0 | 0.0 | 0.00 | 0.00 | 0.00 | 87 | 1016.8 |
| 20260510094328 | 58 | 272 | 0.0 | 0.0 | 0.00 | 0.00 | 0.00 | 86 | 1016.7 |
| 20260510093825 | 58 | 319 | 0.0 | 0.0 | 0.00 | 0.00 | 0.00 | 86 | 1016.5 |
| 20260510093321 | 58 | 285 | 0.0 | 0.0 | 0.00 | 0.00 | 0.00 | 86 | 1016.3 |
| 20260510092817 | 58 | 267 | 0.0 | 0.0 | 0.00 | 0.00 | 0.00 | 85 | 1016.3 |
| 20260510092313 | 58 | 266 | 0.0 | 0.0 | 0.00 | 0.00 | 0.00 | 84 | 1016.3 |
| 20260510091809 | 59 | 266 | 0.0 | 0.0 | 0.00 | 0.00 | 0.00 | 85 | 1016.4 |
| 20260510091306 | 59 | 267 | 0.0 | 0.0 | 0.00 | 0.00 | 0.00 | 83 | 1016.3 |
| 20260510090803 | 59 | 268 | 0.0 | 0.0 | 0.00 | 0.00 | 0.00 | 83 | 1016.5 |
| 20260510090300 | 59 | 268 | 0.0 | 0.0 | 0.00 | 0.00 | 0.00 | 82 | 1016.4 |
| 20260510085755 | 58 | 268 | 0.0 | 0.0 | 0.00 | 0.00 | 0.00 | 83 | 1016.4 |
| 20260510085249 | 59 | 268 | 0.0 | 0.0 | 0.00 | 0.00 | 0.00 | 83 | 1016.2 |
| 20260510084745 | 59 | 268 | 0.0 | 0.0 | 0.00 | 0.00 | 0.00 | 81 | 1016.1 |
| 20260510084243 | 59 | 268 | 0.0 | 0.0 | 0.00 | 0.00 | 0.00 | 81 | 1015.9 |
| 20260510083739 | 59 | 268 | 0.0 | 0.0 | 0.00 | 0.00 | 0.00 | 80 | 1015.8 |
| 20260510083237 | 60 | 269 | 0.0 | 0.0 | 0.00 | 0.00 | 0.00 | 79 | 1015.9 |
| 20260510082737 | 60 | 269 | 0.0 | 0.0 | 0.00 | 0.00 | 0.00 | 79 | 1015.8 |
| 20260510082234 | 60 | 270 | 0.0 | 0.0 | 0.00 | 0.00 | 0.00 | 77 | 1015.9 |
| 20260510081733 | 60 | 279 | 0.0 | 0.0 | 0.00 | 0.00 | 0.00 | 77 | 1016.0 |
| 20260510081229 | 60 | 280 | 0.0 | 0.0 | 0.00 | 0.00 | 0.00 | 75 | 1015.9 |
| 20260510080724 | 60 | 280 | 0.0 | 0.0 | 0.00 | 0.00 | 0.00 | 76 | 1015.9 |
| 20260510080220 | 60 | 280 | 0.0 | 0.0 | 0.00 | 0.00 | 0.00 | 74 | 1015.9 |
| 20260510075717 | 60 | 280 | 0.0 | 0.0 | 0.00 | 0.00 | 0.00 | 74 | 1016.0 |
| 20260510075215 | 59 | 261 | 0.0 | 0.0 | 0.00 | 0.00 | 0.00 | 77 | 1016.0 |
| 20260510074712 | 58 | 261 | 0.0 | 0.0 | 0.00 | 0.00 | 0.00 | 82 | 1015.8 |
| 20260510074208 | 58 | 261 | 0.0 | 0.0 | 0.00 | 0.00 | 0.00 | 82 | 1016.1 |
| 20260510073705 | 58 | 261 | 0.0 | 0.0 | 0.00 | 0.00 | 0.00 | 82 | 1015.8 |
| 20260510073200 | 59 | 261 | 0.0 | 0.0 | 0.00 | 0.00 | 0.00 | 82 | 1015.9 |
| 20260510072657 | 59 | 261 | 0.0 | 0.0 | 0.00 | 0.00 | 0.00 | 82 | 1015.7 |
| 20260510072153 | 59 | 262 | 0.0 | 0.0 | 0.00 | 0.00 | 0.00 | 81 | 1016.0 |
| 20260510071649 | 59 | 261 | 0.0 | 0.0 | 0.00 | 0.00 | 0.00 | 81 | 1015.6 |
| 20260510071147 | 59 | 261 | 0.0 | 0.0 | 0.00 | 0.00 | 0.00 | 81 | 1015.7 |
| 20260510070644 | 59 | 262 | 0.0 | 0.0 | 0.00 | 0.00 | 0.00 | 77 | 1015.6 |
| 20260510070142 | 59 | 261 | 0.0 | 0.0 | 0.00 | 0.00 | 0.00 | 78 | 1015.7 |
| 20260510065638 | 59 | 261 | 0.0 | 0.0 | 0.00 | 0.00 | 0.00 | 78 | 1015.3 |
| 20260510065134 | 59 | 261 | 0.0 | 0.0 | 0.00 | 0.00 | 0.00 | 78 | 1015.4 |
| 20260510064631 | 59 | 261 | 0.0 | 0.0 | 0.00 | 0.00 | 0.00 | 78 | 1015.4 |
| 20260510064127 | 59 | 261 | 0.0 | 0.0 | 0.00 | 0.00 | 0.00 | 76 | 1015.7 |
| 20260510063623 | 59 | 261 | 0.0 | 0.0 | 0.00 | 0.00 | 0.00 | 77 | 1015.6 |
| 20260510063121 | 59 | 261 | 0.0 | 0.0 | 0.00 | 0.00 | 0.00 | 80 | 1015.6 |
| 20260510062617 | 59 | 261 | 0.0 | 0.0 | 0.00 | 0.00 | 0.00 | 76 | 1015.4 |
| 20260510062113 | 60 | 261 | 0.0 | 0.0 | 0.00 | 0.00 | 0.00 | 76 | 1015.7 |
| 20260510061609 | 60 | 261 | 0.0 | 0.0 | 0.00 | 0.00 | 0.00 | 74 | 1015.4 |
| 20260510061106 | 61 | 261 | 0.0 | 0.0 | 0.00 | 0.00 | 0.00 | 74 | 1015.7 |
| 20260510060602 | 61 | 261 | 0.0 | 0.0 | 0.00 | 0.00 | 0.00 | 76 | 1015.8 |
| 20260510060059 | 61 | 261 | 0.0 | 0.0 | 0.00 | 0.00 | 0.00 | 73 | 1015.7 |
| 20260510055554 | 60 | 261 | 0.0 | 0.0 | 0.00 | 0.00 | 0.00 | 73 | 1015.7 |
| 20260510055053 | 60 | 261 | 0.0 | 0.0 | 0.00 | 0.00 | 0.00 | 73 | 1015.8 |
| 20260510054548 | 60 | 261 | 0.0 | 0.0 | 0.00 | 0.00 | 0.00 | 76 | 1015.6 |
| 20260510054044 | 61 | 261 | 0.0 | 0.0 | 0.00 | 0.00 | 0.00 | 73 | 1015.4 |
| 20260510053544 | 61 | 261 | 0.0 | 0.0 | 0.00 | 0.00 | 0.00 | 71 | 1015.4 |
| 20260510053041 | 61 | 261 | 0.0 | 0.0 | 0.00 | 0.00 | 0.00 | 71 | 1015.4 |
| 20260510052536 | 61 | 261 | 0.0 | 0.0 | 0.00 | 0.00 | 0.00 | 71 | 1015.6 |
| 20260510052033 | 62 | 261 | 0.0 | 0.0 | 0.00 | 0.00 | 0.00 | 72 | 1015.4 |
| 20260510051528 | 62 | 261 | 0.0 | 0.0 | 0.00 | 0.00 | 0.00 | 70 | 1015.6 |
| 20260510051026 | 62 | 261 | 0.0 | 0.0 | 0.00 | 0.00 | 0.00 | 68 | 1015.6 |
| 20260510050523 | 62 | 261 | 0.0 | 0.0 | 0.00 | 0.00 | 0.00 | 68 | 1015.4 |
| 20260510050020 | 62 | 261 | 0.0 | 0.0 | 0.00 | 0.00 | 0.00 | 68 | 1015.3 |
| 20260510045517 | 62 | 261 | 0.0 | 0.0 | 0.00 | 0.00 | 0.00 | 68 | 1015.4 |
| 20260510045012 | 63 | 261 | 0.0 | 0.0 | 0.00 | 0.00 | 0.00 | 68 | 1015.4 |
| 20260510044510 | 63 | 266 | 0.9 | 0.9 | 0.00 | 0.00 | 0.00 | 66 | 1015.4 |
| 20260510044008 | 63 | 286 | 0.9 | 0.9 | 0.00 | 0.00 | 0.00 | 67 | 1015.2 |
| 20260510043502 | 62 | 285 | 0.0 | 0.0 | 0.00 | 0.00 | 0.00 | 62 | 1014.9 |
| 20260510043001 | 62 | 283 | 0.0 | 0.0 | 0.00 | 0.00 | 0.00 | 63 | 1014.8 |
| 20260510042457 | 62 | 286 | 0.0 | 0.0 | 0.00 | 0.00 | 0.00 | 65 | 1014.4 |
| 20260510041952 | 62 | 287 | 0.0 | 0.0 | 0.00 | 0.00 | 0.00 | 67 | 1014.3 |
| 20260510041450 | 62 | 287 | 0.0 | 0.0 | 0.00 | 0.00 | 0.00 | 64 | 1014.2 |
| 20260510040948 | 62 | 287 | 0.0 | 0.0 | 0.00 | 0.00 | 0.00 | 64 | 1014.0 |
| 20260510040444 | 62 | 287 | 0.0 | 0.0 | 0.00 | 0.00 | 0.00 | 64 | 1014.0 |
| 20260510035940 | 63 | 287 | 0.0 | 0.0 | 0.00 | 0.00 | 0.00 | 63 | 1014.3 |
| 20260510035436 | 63 | 287 | 0.0 | 0.0 | 0.00 | 0.00 | 0.00 | 62 | 1014.1 |
| 20260510034936 | 63 | 287 | 0.0 | 0.0 | 0.00 | 0.00 | 0.00 | 62 | 1014.3 |
| 20260510034435 | 63 | 287 | 0.0 | 0.0 | 0.00 | 0.00 | 0.00 | 61 | 1014.0 |
| 20260510033931 | 62 | 287 | 0.0 | 0.0 | 0.00 | 0.00 | 0.00 | 64 | 1014.2 |
| 20260510033427 | 62 | 289 | 0.0 | 0.0 | 0.00 | 0.00 | 0.00 | 63 | 1014.2 |
| 20260510032924 | 62 | 289 | 0.0 | 0.0 | 0.00 | 0.00 | 0.00 | 65 | 1014.1 |
| 20260510032421 | 62 | 289 | 0.0 | 0.0 | 0.00 | 0.00 | 0.00 | 65 | 1014.1 |
| 20260510031916 | 62 | 289 | 0.0 | 0.0 | 0.00 | 0.00 | 0.00 | 65 | 1014.1 |
| 20260510031412 | 62 | 289 | 0.0 | 0.0 | 0.00 | 0.00 | 0.00 | 66 | 1014.1 |
| 20260510030907 | 63 | 289 | 0.0 | 0.0 | 0.00 | 0.00 | 0.00 | 66 | 1014.2 |
| 20260510030404 | 63 | 289 | 0.0 | 0.0 | 0.00 | 0.00 | 0.00 | 64 | 1014.2 |
| 20260510025902 | 63 | 289 | 0.0 | 0.0 | 0.00 | 0.00 | 0.00 | 65 | 1014.2 |
| 20260510025359 | 63 | 289 | 0.0 | 0.0 | 0.00 | 0.00 | 0.00 | 69 | 1013.9 |
| 20260510024856 | 63 | 289 | 0.0 | 0.0 | 0.00 | 0.00 | 0.00 | 68 | 1013.9 |
| 20260510024352 | 63 | 289 | 0.0 | 0.0 | 0.00 | 0.00 | 0.00 | 67 | 1013.8 |
| 20260510023848 | 63 | 289 | 0.0 | 0.0 | 0.00 | 0.00 | 0.00 | 66 | 1013.7 |
| 20260510023345 | 63 | 289 | 0.0 | 0.0 | 0.00 | 0.00 | 0.00 | 66 | 1013.6 |
| 20260510022843 | 63 | 289 | 0.0 | 0.0 | 0.00 | 0.00 | 0.00 | 67 | 1013.5 |
| 20260510022341 | 63 | 289 | 0.0 | 0.0 | 0.00 | 0.00 | 0.00 | 70 | 1013.3 |
| 20260510021840 | 63 | 289 | 0.0 | 0.0 | 0.00 | 0.00 | 0.00 | 69 | 1013.2 |
| 20260510021339 | 63 | 289 | 0.0 | 0.0 | 0.00 | 0.00 | 0.00 | 74 | 1012.9 |
| 20260510020834 | 63 | 289 | 0.0 | 0.0 | 0.00 | 0.00 | 0.00 | 72 | 1012.9 |
| 20260510020329 | 64 | 289 | 0.0 | 0.0 | 0.00 | 0.00 | 0.00 | 71 | 1012.8 |
| 20260510015825 | 64 | 289 | 0.0 | 0.0 | 0.00 | 0.00 | 0.00 | 70 | 1012.9 |
| 20260510015321 | 64 | 289 | 0.0 | 0.0 | 0.00 | 0.00 | 0.00 | 69 | 1012.7 |
| 20260510014816 | 64 | 289 | 0.0 | 0.0 | 0.00 | 0.00 | 0.00 | 71 | 1012.7 |
| 20260510014314 | 64 | 289 | 0.0 | 0.0 | 0.00 | 0.00 | 0.00 | 72 | 1012.6 |
| 20260510013810 | 64 | 289 | 0.0 | 0.0 | 0.00 | 0.00 | 0.00 | 71 | 1012.5 |
| 20260510013305 | 65 | 289 | 0.0 | 0.0 | 0.00 | 0.00 | 0.00 | 72 | 1012.3 |
| 20260510012800 | 65 | 289 | 0.0 | 0.0 | 0.00 | 0.00 | 0.00 | 74 | 1012.4 |
| 20260510012255 | 66 | 289 | 0.0 | 0.0 | 0.00 | 0.00 | 0.00 | 72 | 1012.3 |
| 20260510011754 | 66 | 289 | 0.0 | 0.0 | 0.00 | 0.00 | 0.00 | 70 | 1012.2 |
| 20260510011250 | 67 | 289 | 0.0 | 0.0 | 0.00 | 0.00 | 0.00 | 70 | 1012.3 |
| 20260510010748 | 67 | 289 | 0.0 | 0.0 | 0.00 | 0.00 | 0.00 | 69 | 1012.1 |
| 20260510010244 | 68 | 289 | 0.0 | 0.0 | 0.00 | 0.00 | 0.00 | 68 | 1012.0 |
| 20260510005741 | 68 | 289 | 0.0 | 0.0 | 0.00 | 0.00 | 0.00 | 66 | 1011.8 |
| 20260510005237 | 69 | 289 | 0.0 | 0.0 | 0.00 | 0.00 | 0.00 | 65 | 1011.9 |
| 20260510004735 | 69 | 289 | 0.0 | 0.0 | 0.00 | 0.00 | 0.00 | 64 | 1011.9 |
| 20260510004233 | 69 | 288 | 0.0 | 0.0 | 0.00 | 0.00 | 0.00 | 65 | 1011.9 |
| 20260510003730 | 69 | 289 | 0.0 | 0.0 | 0.00 | 0.00 | 0.00 | 65 | 1012.0 |
| 20260510003226 | 70 | 289 | 0.0 | 0.0 | 0.00 | 0.00 | 0.00 | 62 | 1011.9 |
| 20260510002725 | 71 | 289 | 0.0 | 0.0 | 0.00 | 0.00 | 0.00 | 61 | 1011.9 |
| 20260510002223 | 71 | 289 | 0.0 | 0.0 | 0.00 | 0.00 | 0.00 | 59 | 1011.8 |
| 20260510001719 | 72 | 289 | 0.0 | 0.0 | 0.00 | 0.00 | 0.00 | 57 | 1011.9 |
| 20260510001218 | 72 | 288 | 0.0 | 0.0 | 0.00 | 0.00 | 0.00 | 55 | 1011.7 |
| 20260510000713 | 72 | 288 | 0.0 | 0.0 | 0.00 | 0.00 | 0.00 | 53 | 1011.7 |
| 20260510000211 | 73 | 288 | 0.0 | 0.0 | 0.00 | 0.00 | 0.00 | 54 | 1011.6 |
| 20260509235707 | 73 | 288 | 0.0 | 0.0 | 0.00 | 0.00 | 0.00 | 48 | 1011.8 |
| 20260509235204 | 74 | 289 | 0.0 | 0.0 | 0.00 | 0.00 | 0.00 | 47 | 1011.9 |
| 20260509234700 | 74 | 289 | 0.0 | 0.0 | 0.00 | 0.00 | 0.00 | 48 | 1011.9 |
| 20260509234157 | 74 | 288 | 0.0 | 0.0 | 0.00 | 0.00 | 0.00 | 48 | 1011.7 |
| 20260509233655 | 74 | 289 | 0.0 | 0.0 | 0.00 | 0.00 | 0.00 | 47 | 1011.8 |
| 20260509233153 | 74 | 289 | 0.0 | 0.0 | 0.00 | 0.00 | 0.00 | 46 | 1011.9 |
| 20260509232649 | 74 | 285 | 0.0 | 0.0 | 0.00 | 0.00 | 0.00 | 46 | 1011.7 |
| 20260509232146 | 75 | 285 | 0.0 | 0.0 | 0.00 | 0.00 | 0.00 | 44 | 1011.8 |
| 20260509231642 | 76 | 285 | 0.0 | 0.0 | 0.00 | 0.00 | 0.00 | 43 | 1011.7 |
| 20260509231139 | 76 | 285 | 0.0 | 0.0 | 0.00 | 0.00 | 0.00 | 41 | 1011.9 |
| 20260509230636 | 76 | 285 | 0.0 | 0.0 | 0.00 | 0.00 | 0.00 | 46 | 1011.8 |
| 20260509230133 | 77 | 285 | 0.0 | 0.0 | 0.00 | 0.00 | 0.00 | 44 | 1011.6 |
| 20260509225629 | 78 | 252 | 0.0 | 0.0 | 0.00 | 0.00 | 0.00 | 39 | 1011.8 |
| 20260509225125 | 78 | 258 | 0.0 | 0.0 | 0.00 | 0.00 | 0.00 | 37 | 1011.7 |
| 20260509224620 | 79 | 281 | 0.0 | 0.9 | 0.00 | 0.00 | 0.00 | 35 | 1011.9 |
| 20260509224118 | 79 | 278 | 0.0 | 0.0 | 0.00 | 0.00 | 0.00 | 35 | 1011.8 |
| 20260509223614 | 79 | 305 | 0.9 | 0.9 | 0.00 | 0.00 | 0.00 | 32 | 1011.9 |
| 20260509223112 | 79 | 284 | 0.0 | 0.0 | 0.00 | 0.00 | 0.00 | 34 | 1011.9 |
| 20260509222608 | 79 | 290 | 0.9 | 0.9 | 0.00 | 0.00 | 0.00 | 34 | 1011.9 |
| 20260509222104 | 78 | 259 | 0.0 | 0.0 | 0.00 | 0.00 | 0.00 | 37 | 1011.9 |
| 20260509221559 | 79 | 284 | 0.0 | 0.0 | 0.00 | 0.00 | 0.00 | 42 | 1011.8 |
| 20260509221056 | 80 | 258 | 0.0 | 0.0 | 0.00 | 0.00 | 0.00 | 36 | 1011.6 |
| 20260509220552 | 80 | 289 | 0.0 | 0.0 | 0.00 | 0.00 | 0.00 | 35 | 1011.7 |
| 20260509220048 | 80 | 272 | 0.0 | 0.0 | 0.00 | 0.00 | 0.00 | 35 | 1011.7 |
| 20260509215544 | 80 | 290 | 1.7 | 1.7 | 0.00 | 0.00 | 0.00 | 33 | 1011.9 |
| 20260509215041 | 79 | 286 | 0.9 | 0.9 | 0.00 | 0.00 | 0.00 | 36 | 1011.8 |
| 20260509214538 | 80 | 300 | 0.0 | 0.0 | 0.00 | 0.00 | 0.00 | 38 | 1011.7 |
| 20260509214035 | 80 | 281 | 0.0 | 0.0 | 0.00 | 0.00 | 0.00 | 38 | 1011.8 |
| 20260509213531 | 80 | 302 | 0.0 | 0.0 | 0.00 | 0.00 | 0.00 | 37 | 1011.8 |
| 20260509213028 | 80 | 290 | 0.9 | 1.7 | 0.00 | 0.00 | 0.00 | 35 | 1011.8 |
| 20260509212525 | 80 | 209 | 0.9 | 1.7 | 0.00 | 0.00 | 0.00 | 34 | 1011.7 |
| 20260509212023 | 80 | 271 | 0.0 | 0.9 | 0.00 | 0.00 | 0.00 | 37 | 1011.7 |
| 20260509211518 | 81 | 300 | 0.0 | 0.0 | 0.00 | 0.00 | 0.00 | 34 | 1012.0 |
| 20260509211015 | 82 | 272 | 1.7 | 1.7 | 0.00 | 0.00 | 0.00 | 32 | 1011.9 |
| 20260509210512 | 81 | 288 | 0.0 | 0.9 | 0.00 | 0.00 | 0.00 | 31 | 1012.0 |
| 20260509210008 | 82 | 286 | 0.9 | 0.9 | 0.00 | 0.00 | 0.00 | 32 | 1012.0 |
| 20260509205502 | 81 | 246 | 0.9 | 0.9 | 0.00 | 0.00 | 0.00 | 35 | 1012.0 |
| 20260509204958 | 82 | 290 | 1.7 | 1.7 | 0.00 | 0.00 | 0.00 | 36 | 1012.1 |
| 20260509204454 | 82 | 352 | 0.9 | 1.7 | 0.00 | 0.00 | 0.00 | 32 | 1012.2 |
| 20260509203951 | 82 | 237 | 0.0 | 0.9 | 0.00 | 0.00 | 0.00 | 38 | 1012.2 |